GW1618 Weather Reports


time (UTC)temp
F
wind
direction
speed
knots
gust
knots
rain 1hr
in
rain 24hr
in
rain mn
in
humidity
%
barometer
mb
20260508220502 60 208 6.1 13.9 0.00 0.00 0.00 53 1021.2
20260508220001 60 238 7.0 13.9 0.00 0.00 0.00 54 1021.2
20260508215503 60 217 5.2 12.2 0.00 0.00 0.00 52 1021.2
20260508215001 60 232 5.2 10.4 0.00 0.00 0.00 53 1021.2
20260508214502 60 205 4.3 10.4 0.00 0.00 0.00 52 1021.2
20260508214002 60 252 5.2 13.9 0.00 0.00 0.00 53 1021.2
20260508213506 60 178 5.2 13.9 0.00 0.00 0.00 52 1021.2
20260508213005 60 209 6.1 10.4 0.00 0.00 0.00 53 1021.2
20260508212503 59 304 6.1 10.4 0.00 0.00 0.00 51 1021.2
20260508212245 59 224 7.0 13.0 0.00 0.00 0.00 51 1021.0
20260508211501 59 246 7.8 13.0 0.00 0.00 0.00 51 1021.0
20260508211003 59 212 7.8 13.9 0.00 0.00 0.00 53 1021.0
20260508210743 59 188 7.0 13.9 0.00 0.00 0.00 51 1020.8
20260508210001 59 286 6.1 11.3 0.00 0.00 0.00 52 1020.8
20260508205529 59 231 7.0 12.2 0.00 0.00 0.00 52 1020.8
20260508204501 59 226 5.2 12.2 0.00 0.00 0.00 52 1020.8
20260508204002 59 240 5.2 11.3 0.00 0.00 0.00 52 1020.8
20260508203502 59 238 4.3 11.3 0.00 0.00 0.00 51 1020.7
20260508203250 58 232 4.3 10.4 0.00 0.00 0.00 54 1020.7
20260508202501 58 252 6.1 10.4 0.00 0.00 0.00 53 1020.7
20260508202004 58 206 6.1 12.2 0.00 0.00 0.00 53 1020.7
20260508201504 58 281 4.3 12.2 0.00 0.00 0.00 54 1020.7
20260508201005 58 244 3.5 9.6 0.00 0.00 0.00 55 1020.7
20260508200500 58 204 4.3 11.3 0.00 0.00 0.00 55 1020.7
20260508195957 57 256 6.1 11.3 0.00 0.00 0.00 55 1020.7
20260508195458 57 265 5.2 12.2 0.00 0.00 0.00 54 1020.7
20260508194958 57 234 5.2 12.2 0.00 0.00 0.00 54 1020.7
20260508194458 57 257 5.2 13.9 0.00 0.00 0.00 55 1020.7
20260508193959 57 183 6.1 13.9 0.00 0.00 0.00 57 1020.7
20260508193456 57 248 5.2 11.3 0.00 0.00 0.00 57 1020.7
20260508192958 56 214 6.1 12.2 0.00 0.00 0.00 58 1020.7
20260508192506 56 244 7.0 12.2 0.00 0.00 0.00 58 1020.7
20260508191947 56 205 6.1 12.2 0.00 0.00 0.00 59 1020.7
20260508191433 56 233 6.1 12.2 0.00 0.00 0.00 59 1020.7
20260508190933 56 215 7.0 13.0 0.00 0.00 0.00 59 1020.7
20260508190433 56 241 6.1 13.0 0.00 0.00 0.00 60 1020.7
20260508185931 56 271 5.2 10.4 0.00 0.00 0.00 60 1020.7
20260508185428 56 193 5.2 9.6 0.00 0.00 0.00 60 1020.7
20260508184929 55 215 4.3 13.0 0.00 0.00 0.00 62 1020.7
20260508184429 55 206 5.2 13.0 0.00 0.00 0.00 61 1020.7
20260508183932 55 259 5.2 11.3 0.00 0.00 0.00 61 1020.7
20260508183432 55 199 5.2 11.3 0.00 0.00 0.00 62 1020.7
20260508182934 55 271 5.2 12.2 0.00 0.00 0.00 62 1020.7
20260508182424 54 267 6.1 13.0 0.00 0.00 0.00 62 1020.7
20260508181909 54 214 7.0 13.0 0.00 0.00 0.00 63 1020.6
20260508181409 54 256 6.1 13.9 0.00 0.00 0.00 63 1020.6
20260508181206 54 244 4.3 13.9 0.00 0.00 0.00 63 1020.6
20260508180410 54 231 4.3 12.2 0.00 0.00 0.00 63 1020.6
20260508175911 53 256 5.2 12.2 0.00 0.00 0.00 63 1020.6
20260508175410 53 243 4.3 9.6 0.00 0.00 0.00 63 1020.6
20260508174908 53 223 3.5 8.7 0.00 0.00 0.00 64 1020.5
20260508174441 53 250 4.3 11.3 0.00 0.00 0.00 65 1020.5
20260508173428 53 267 5.2 13.0 0.00 0.00 0.00 64 1020.2
20260508172407 53 209 5.2 13.0 0.00 0.00 0.00 65 1020.2
20260508171904 53 245 5.2 13.0 0.00 0.00 0.00 64 1020.0
20260508171404 53 242 5.2 11.3 0.00 0.00 0.00 65 1020.0
20260508170933 53 197 5.2 11.3 0.00 0.00 0.00 65 1020.0
20260508165907 53 207 6.1 11.3 0.00 0.00 0.00 64 1020.0
20260508165403 53 222 6.1 11.3 0.00 0.00 0.00 63 1020.0
20260508164902 53 265 5.2 11.3 0.00 0.00 0.00 64 1019.8
20260508164401 53 254 6.1 13.0 0.00 0.00 0.00 63 1019.8
20260508163902 53 223 7.0 13.0 0.00 0.00 0.00 63 1019.8
20260508163402 53 250 7.8 13.0 0.00 0.00 0.00 63 1019.7
20260508162901 53 231 7.8 14.8 0.00 0.00 0.00 63 1019.7
20260508162401 53 265 7.0 14.8 0.00 0.00 0.00 62 1019.7
20260508161901 53 224 5.2 11.3 0.00 0.00 0.00 64 1019.3
20260508161403 53 253 5.2 11.3 0.00 0.00 0.00 65 1019.3
20260508160910 53 258 5.2 12.2 0.00 0.00 0.00 65 1019.3
20260508160648 53 242 5.2 12.2 0.00 0.00 0.00 65 1019.4
20260508155843 53 215 5.2 10.4 0.00 0.00 0.00 66 1019.4
20260508155334 52 267 5.2 10.4 0.00 0.00 0.00 66 1019.4
20260508154833 52 260 5.2 10.4 0.00 0.00 0.00 66 1019.1
20260508154335 52 253 4.3 10.4 0.00 0.00 0.00 67 1019.1
20260508153837 52 240 4.3 7.8 0.00 0.00 0.00 67 1019.1
20260508153335 52 231 4.3 10.4 0.00 0.00 0.00 67 1019.2
20260508152834 52 194 4.3 10.4 0.00 0.00 0.00 67 1019.2
20260508152331 52 259 3.5 8.7 0.00 0.00 0.00 67 1019.2
20260508151833 52 199 3.5 8.7 0.00 0.00 0.00 67 1019.1
20260508151337 52 231 4.3 9.6 0.00 0.00 0.00 64 1019.1
20260508150836 52 238 4.3 9.6 0.00 0.00 0.00 64 1019.1
20260508150618 52 263 4.3 11.3 0.00 0.00 0.00 64 1019.1
20260508145830 52 188 3.5 11.3 0.00 0.00 0.00 66 1019.1
20260508145328 52 214 2.6 9.6 0.00 0.00 0.00 68 1019.1
20260508144825 51 150 3.5 5.2 0.00 0.00 0.00 70 1019.2
20260508144317 51 186 4.3 7.8 0.00 0.00 0.00 71 1019.2
20260508143810 51 237 4.3 7.8 0.00 0.00 0.00 71 1019.2
20260508143310 51 185 3.5 7.8 0.00 0.00 0.00 71 1019.1
20260508142808 51 253 2.6 5.2 0.00 0.00 0.00 74 1019.1
20260508142307 50 202 2.6 5.2 0.00 0.00 0.00 76 1019.1
20260508142045 50 220 2.6 4.3 0.00 0.00 0.00 78 1018.9
20260508141308 49 196 1.7 3.5 0.00 0.00 0.00 80 1018.9
20260508140809 49 232 1.7 3.5 0.00 0.00 0.00 80 1018.9
20260508140304 49 219 1.7 3.5 0.00 0.00 0.00 80 1018.6
20260508135805 48 267 2.6 4.3 0.00 0.00 0.00 80 1018.6
20260508135326 48 239 2.6 4.3 0.00 0.00 0.00 80 1018.6
20260508134301 48 249 2.6 4.3 0.00 0.00 0.00 81 1018.2
20260508134040 48 256 1.7 4.3 0.00 0.00 0.00 81 1018.2
20260508133303 48 240 1.7 3.5 0.00 0.00 0.00 80 1018.1
20260508132801 48 196 2.6 4.3 0.00 0.00 0.00 80 1018.1
20260508132306 48 232 2.6 4.3 0.00 0.00 0.00 81 1018.1
20260508131801 48 239 1.7 3.5 0.00 0.00 0.00 81 1018.0
20260508131259 49 255 1.7 3.5 0.00 0.00 0.00 81 1018.0
20260508130758 49 189 1.7 3.5 0.00 0.00 0.00 81 1018.0
20260508130256 48 186 1.7 2.6 0.00 0.00 0.00 81 1017.6
20260508125758 49 145 1.7 2.6 0.00 0.00 0.00 81 1017.6
20260508125253 49 157 1.7 3.5 0.00 0.00 0.00 81 1017.6
20260508124754 48 144 1.7 3.5 0.00 0.00 0.00 82 1017.6
20260508124516 48 148 1.7 2.6 0.00 0.00 0.00 82 1017.6
20260508123746 48 176 1.7 2.6 0.00 0.00 0.00 83 1017.6
20260508123231 48 141 0.9 1.7 0.00 0.00 0.00 83 1017.6
20260508122805 48 165 0.9 1.7 0.00 0.00 0.00 83 1017.6
20260508122025 48 196 0.9 1.7 0.00 0.00 0.00 83 1017.5
20260508121229 48 206 0.9 1.7 0.00 0.00 0.00 83 1017.5
20260508120730 48 250 0.9 1.7 0.00 0.00 0.00 83 1017.5
20260508120229 48 250 0.9 1.7 0.00 0.00 0.00 83 1017.4
20260508115732 48 247 0.9 2.6 0.00 0.00 0.00 82 1017.4
20260508115230 48 220 1.7 2.6 0.00 0.00 0.00 82 1017.4
20260508114729 48 206 0.9 2.6 0.00 0.00 0.00 82 1017.4
20260508114518 48 190 1.7 3.5 0.00 0.00 0.00 82 1017.4
20260508113717 48 264 1.7 3.5 0.00 0.00 0.00 82 1017.4
20260508113202 48 229 1.7 3.5 0.00 0.00 0.00 81 1017.1
20260508112702 49 240 2.6 4.3 0.00 0.00 0.00 81 1017.1
20260508112203 49 225 2.6 4.3 0.00 0.00 0.00 81 1017.1
20260508111705 49 242 2.6 4.3 0.00 0.00 0.00 81 1017.0
20260508111448 49 247 2.6 4.3 0.00 0.00 0.00 81 1017.0
20260508110704 49 253 2.6 4.3 0.00 0.00 0.00 80 1017.0
20260508110200 49 260 1.7 3.5 0.00 0.00 0.00 81 1016.9
20260508105941 49 263 1.7 3.5 0.00 0.00 0.00 81 1016.9
20260508105151 49 260 2.6 3.5 0.00 0.00 0.00 80 1016.9
20260508104652 49 253 2.6 4.3 0.00 0.00 0.00 80 1016.6
20260508104436 49 250 2.6 4.3 0.00 0.00 0.00 80 1016.6
20260508103644 49 260 2.6 4.3 0.00 0.00 0.00 80 1016.6
20260508103143 49 243 2.6 4.3 0.00 0.00 0.00 80 1016.5
20260508102634 49 231 2.6 4.3 0.00 0.00 0.00 80 1016.5
20260508102132 49 222 2.6 4.3 0.00 0.00 0.00 80 1016.5
20260508101631 49 247 1.7 4.3 0.00 0.00 0.00 80 1016.5
20260508101134 49 257 1.7 3.5 0.00 0.00 0.00 80 1016.5
20260508100629 49 204 1.7 3.5 0.00 0.00 0.00 80 1016.5
20260508100121 50 222 2.6 4.3 0.00 0.00 0.00 80 1016.5
20260508095617 50 245 3.5 4.3 0.00 0.00 0.00 80 1016.5
20260508095117 50 245 3.5 4.3 0.00 0.00 0.00 79 1016.5
20260508094612 50 266 2.6 4.3 0.00 0.00 0.00 79 1016.5
20260508094105 50 264 2.6 4.3 0.00 0.00 0.00 79 1016.5
20260508093602 50 271 2.6 5.2 0.00 0.00 0.00 79 1016.5
20260508093102 50 258 2.6 5.2 0.00 0.00 0.00 79 1016.5
20260508092603 50 270 2.6 4.3 0.00 0.00 0.00 79 1016.5
20260508092353 50 244 1.7 3.5 0.00 0.00 0.00 80 1016.4
20260508091604 50 261 0.9 2.6 0.00 0.00 0.00 80 1016.4
20260508091346 50 217 0.0 1.7 0.00 0.00 0.00 80 1016.4
20260508090606 50 292 0.9 1.7 0.00 0.00 0.00 80 1016.4
20260508090059 51 292 0.9 1.7 0.00 0.00 0.00 80 1016.4
20260508085542 51 292 0.9 1.7 0.00 0.00 0.00 80 1016.4
20260508085315 51 344 0.9 1.7 0.00 0.00 0.00 79 1016.4
20260508084532 51 344 0.9 1.7 0.00 0.00 0.00 78 1016.4
20260508084025 51 324 0.0 1.7 0.00 0.00 0.00 78 1016.4
20260508083522 51 324 0.9 1.7 0.00 0.00 0.00 78 1016.3
20260508083023 51 324 1.7 1.7 0.00 0.00 0.00 77 1016.3
20260508082522 51 304 1.7 1.7 0.00 0.00 0.00 77 1016.3
20260508082021 51 310 0.9 1.7 0.00 0.00 0.00 77 1016.3
20260508081521 51 328 0.0 1.7 0.00 0.00 0.00 77 1016.3
20260508081017 51 345 0.0 0.9 0.00 0.00 0.00 76 1016.3
20260508080507 51 345 0.0 0.9 0.00 0.00 0.00 76 1016.1
20260508080004 51 345 0.9 1.7 0.00 0.00 0.00 76 1016.1
20260508075504 51 345 0.9 1.7 0.00 0.00 0.00 76 1016.1
20260508075002 51 345 1.7 3.5 0.00 0.00 0.00 76 1016.1
20260508074456 51 359 2.6 3.5 0.00 0.00 0.00 75 1016.1
20260508073953 51 339 2.6 3.5 0.00 0.00 0.00 76 1016.1
20260508073444 52 347 2.6 4.3 0.00 0.00 0.00 76 1016.1
20260508072946 52 4 2.6 4.3 0.00 0.00 0.00 76 1016.1
20260508072729 52 348 2.6 4.3 0.00 0.00 0.00 76 1016.1
20260508071942 52 352 2.6 4.3 0.00 0.00 0.00 75 1016.1
20260508071440 52 355 2.6 3.5 0.00 0.00 0.00 75 1016.1
20260508071231 52 340 2.6 3.5 0.00 0.00 0.00 75 1016.1
20260508070441 53 325 1.7 3.5 0.00 0.00 0.00 74 1016.2
20260508065941 53 339 2.6 4.3 0.00 0.00 0.00 74 1016.2
20260508065441 53 346 2.6 4.3 0.00 0.00 0.00 73 1016.2
20260508064935 53 348 1.7 3.5 0.00 0.00 0.00 73 1016.2
20260508064435 53 359 1.7 3.5 0.00 0.00 0.00 73 1016.2
20260508063935 53 350 2.6 3.5 0.00 0.00 0.00 72 1016.2
20260508063446 53 346 1.7 3.5 0.00 0.00 0.00 72 1016.1
20260508062429 54 325 2.6 3.5 0.00 0.00 0.00 72 1016.1
20260508062219 54 313 2.6 4.3 0.00 0.00 0.00 71 1016.2
20260508061423 54 323 3.5 5.2 0.00 0.00 0.00 71 1016.2
20260508060926 54 354 4.3 6.1 0.00 0.00 0.00 71 1016.2
20260508060422 54 340 3.5 6.1 0.00 0.00 0.00 70 1016.2
20260508060219 55 337 2.6 4.3 0.00 0.00 0.00 70 1016.2
20260508055422 55 331 2.6 4.3 0.00 0.00 0.00 70 1016.2
20260508054928 55 344 1.7 3.5 0.00 0.00 0.00 69 1016.2
20260508054423 55 9 0.9 2.6 0.00 0.00 0.00 69 1016.2
20260508053920 56 36 1.7 3.5 0.00 0.00 0.00 69 1016.2
20260508053417 56 9 2.6 4.3 0.00 0.00 0.00 68 1016.2
20260508053159 56 30 2.6 4.3 0.00 0.00 0.00 69 1016.2
20260508052656 56 36 1.7 3.5 0.00 0.00 0.00 68 1016.2
20260508051908 56 32 1.7 2.6 0.00 0.00 0.00 67 1016.2
20260508051405 56 41 1.7 4.3 0.00 0.00 0.00 67 1016.2
20260508050903 56 57 1.7 4.3 0.00 0.00 0.00 67 1016.2
20260508050403 56 62 1.7 4.3 0.00 0.00 0.00 66 1016.2
20260508045901 56 65 0.9 3.5 0.00 0.00 0.00 66 1016.2
20260508045721 57 325 1.7 3.5 0.00 0.00 0.00 66 1016.2
20260508044648 57 53 1.7 3.5 0.00 0.00 0.00 65 1016.2
20260508043859 57 279 1.7 3.5 0.00 0.00 0.00 65 1016.2
20260508043353 57 326 1.7 4.3 0.00 0.00 0.00 65 1016.2
20260508042843 58 320 2.6 4.3 0.00 0.00 0.00 65 1016.2
20260508042627 58 290 3.5 7.0 0.00 0.00 0.00 65 1016.2
20260508041905 58 321 4.3 7.8 0.00 0.00 0.00 65 1016.2
20260508041122 58 316 5.2 9.6 0.00 0.00 0.00 63 1016.2
20260508040338 59 298 6.1 9.6 0.00 0.00 0.00 63 1016.0
20260508035837 59 314 7.0 9.6 0.00 0.00 0.00 62 1016.0
20260508035340 59 318 7.0 11.3 0.00 0.00 0.00 62 1016.0
20260508034838 59 325 7.0 11.3 0.00 0.00 0.00 61 1016.0
20260508034617 60 321 6.1 9.6 0.00 0.00 0.00 61 1016.0
20260508034123 60 321 4.3 7.8 0.00 0.00 0.00 61 1016.0
20260508033333 60 319 4.3 6.1 0.00 0.00 0.00 61 1016.0
20260508032833 60 320 4.3 7.8 0.00 0.00 0.00 59 1016.0
20260508032333 61 322 4.3 7.8 0.00 0.00 0.00 59 1016.0
20260508031831 61 316 4.3 8.7 0.00 0.00 0.00 59 1016.0
20260508031332 61 319 5.2 8.7 0.00 0.00 0.00 58 1016.0
20260508030831 61 336 6.1 8.7 0.00 0.00 0.00 57 1016.0
20260508030331 62 4 5.2 8.7 0.00 0.00 0.00 56 1015.8
20260508025834 62 329 2.6 7.0 0.00 0.00 0.00 57 1015.8
20260508025611 62 38 1.7 3.5 0.00 0.00 0.00 57 1015.8
20260508024831 62 354 2.6 4.3 0.00 0.00 0.00 55 1015.8
20260508024330 62 354 2.6 5.2 0.00 0.00 0.00 55 1015.8
20260508023829 62 359 2.6 5.2 0.00 0.00 0.00 55 1015.8
20260508023331 62 23 2.6 5.2 0.00 0.00 0.00 56 1015.9
20260508022830 62 359 3.5 5.2 0.00 0.00 0.00 57 1015.9
20260508022329 62 335 3.5 6.1 0.00 0.00 0.00 56 1015.9
20260508021828 62 349 5.2 7.8 0.00 0.00 0.00 58 1016.0
20260508021329 62 345 5.2 7.8 0.00 0.00 0.00 56 1016.0
20260508021110 62 26 5.2 7.8 0.00 0.00 0.00 53 1016.0
20260508020331 63 13 3.5 7.8 0.00 0.00 0.00 60 1016.0
20260508015832 63 4 2.6 4.3 0.00 0.00 0.00 57 1016.0
20260508015329 63 4 2.6 5.2 0.00 0.00 0.00 58 1016.0
20260508014830 63 9 3.5 5.2 0.00 0.00 0.00 57 1016.0
20260508014329 63 344 2.6 4.3 0.00 0.00 0.00 54 1016.0
20260508013829 63 359 3.5 5.2 0.00 0.00 0.00 56 1016.0
20260508013329 63 344 4.3 7.0 0.00 0.00 0.00 56 1016.0
20260508012828 63 359 5.2 7.0 0.00 0.00 0.00 55 1016.0
20260508012330 64 9 4.3 6.1 0.00 0.00 0.00 48 1016.0
20260508011823 64 26 3.5 5.2 0.00 0.00 0.00 49 1016.4
20260508011317 64 359 2.6 4.3 0.00 0.00 0.00 47 1016.4
20260508010809 64 21 2.6 4.3 0.00 0.00 0.00 50 1016.4
20260508004746 63 9 3.5 5.2 0.00 0.00 0.00 53 1016.5
20260508004235 63 4 3.5 5.2 0.00 0.00 0.00 52 1016.5
20260508003733 63 351 2.6 4.3 0.00 0.00 0.00 49 1016.5
20260508003516 63 14 4.3 6.1 0.00 0.00 0.00 53 1016.6
20260508002735 62 9 5.2 6.1 0.00 0.00 0.00 52 1016.6
20260508002233 62 21 5.2 6.1 0.00 0.00 0.00 53 1016.6
20260508001730 62 20 5.2 6.1 0.00 0.00 0.00 53 1016.7
20260508001517 62 15 5.2 6.1 0.00 0.00 0.00 51 1016.7
20260508000729 62 9 5.2 6.1 0.00 0.00 0.00 54 1016.7
20260508000229 61 9 5.2 7.8 0.00 0.00 0.00 55 1016.9
20260507235730 61 9 6.1 7.8 0.00 0.00 0.00 55 1016.9
20260507235230 61 9 6.1 7.8 0.00 0.00 0.00 54 1016.9
20260507234730 61 15 6.1 7.8 0.00 0.00 0.00 53 1017.1
20260507234230 61 9 6.1 7.8 0.00 0.00 0.00 54 1017.1
20260507233730 61 15 7.0 9.6 0.00 0.00 0.00 58 1017.1
20260507233517 61 15 7.8 9.6 0.00 0.00 0.00 57 1017.2
20260507232732 61 354 8.7 10.4 0.00 0.00 0.00 59 1017.2
20260507232234 61 9 7.0 10.4 0.00 0.00 0.00 56 1017.2
20260507232014 61 4 7.0 9.6 0.00 0.00 0.00 53 1017.5
20260507231230 61 359 7.8 9.6 0.00 0.00 0.00 55 1017.5
20260507230730 61 9 7.0 9.6 0.00 0.00 0.00 55 1017.5
20260507230230 61 337 7.0 9.6 0.00 0.00 0.00 60 1017.6
20260507225729 60 4 7.8 9.6 0.00 0.00 0.00 60 1017.6
20260507225517 60 4 7.8 9.6 0.00 0.00 0.00 56 1017.6
20260507224731 60 9 7.8 10.4 0.00 0.00 0.00 58 1017.6
20260507224230 60 14 7.8 10.4 0.00 0.00 0.00 57 1017.6
20260507223729 60 13 7.8 10.4 0.00 0.00 0.00 56 1017.6
20260507223230 60 13 8.7 10.4 0.00 0.00 0.00 55 1017.9
20260507223013 60 28 8.7 10.4 0.00 0.00 0.00 58 1017.9
20260507222231 60 9 8.7 10.4 0.00 0.00 0.00 59 1017.9
20260507221730 60 21 7.8 11.3 0.00 0.00 0.00 58 1018.1
20260507221525 60 9 7.8 11.3 0.00 0.00 0.00 59 1018.1
20260507221027 60 9 7.8 10.4 0.00 0.00 0.00 59 1018.1